Location: Newark
(44.6028°N, 124.0883°W)
Time: 21:58:40
(UTC+00:00)

Envisat - Visible Passes

Search period start: 15 September 2019 00:00
Search period end: 25 September 2019 00:00
Orbit: 764 x 766 km, 98.1° (Epoch: 15 September)

Date Brightness Start Highest point End Pass type
(mag) Time Alt. Az. Time Alt. Az. Time Alt. Az.
16 Sep 5.7 03:32:08 10° SW 03:36:01 22° W 03:39:56 10° NW visible
17 Sep 4.3 02:54:08 10° S 02:59:00 46° W 03:03:54 10° NNW visible
18 Sep 6.1 03:59:40 10° WSW 04:01:50 13° W 04:04:01 10° WNW visible
19 Sep 5.3 03:20:23 10° SSW 03:24:40 27° W 03:29:00 10° NW visible
20 Sep 3.8 02:42:42 10° S 02:47:43 59° W 02:52:45 10° NNW visible
21 Sep 5.9 03:47:21 10° SW 03:50:26 16° W 03:53:33 10° NW visible
22 Sep 4.9 03:08:45 10° SSW 03:13:20 34° W 03:17:57 10° NNW visible
24 Sep 5.7 03:35:21 10° SW 03:39:03 20° W 03:42:47 10° NW visible
